EW5026 Weather Reports


Display with metric or nautical units.
time (UTC)temp
F
wind
direction
speed
MPH
gust
MPH
rain 1hr
in
rain 24hr
in
rain mn
in
humidity
%
barometer
mb
20260508213509 66 237 7.0 10.0 0.00 0.09 0.09 61 1005.9
20260508213008 65 249 6.0 12.0 0.00 0.09 0.09 63 1006.0
20260508212508 65 224 7.0 12.0 0.00 0.09 0.09 64 1006.0
20260508212007 65 234 5.0 13.0 0.00 0.09 0.09 64 1006.0
20260508211509 65 222 9.0 13.0 0.00 0.09 0.09 63 1006.0
20260508211007 65 217 6.0 9.0 0.00 0.09 0.09 61 1005.9
20260508210510 65 264 6.0 12.0 0.00 0.09 0.09 63 1006.0
20260508210005 65 236 8.0 12.0 0.00 0.09 0.09 65 1006.0
20260508205503 64 214 8.0 10.0 0.00 0.09 0.09 66 1006.0
20260508205003 64 235 7.0 12.0 0.00 0.09 0.09 66 1006.1
20260508204508 63 221 7.0 12.0 0.00 0.09 0.09 68 1006.2
20260508204002 63 219 6.0 13.0 0.00 0.09 0.09 67 1006.2
20260508203502 64 219 7.0 13.0 0.00 0.09 0.09 67 1006.2
20260508203116 64 230 9.0 14.0 0.00 0.09 0.09 68 1006.2
20260508202601 63 231 9.0 14.0 0.00 0.09 0.09 67 1006.3
20260508202107 63 215 11.0 14.0 0.00 0.09 0.09 67 1006.3
20260508201600 63 205 8.0 13.0 0.00 0.09 0.09 68 1006.5
20260508201059 64 228 8.0 17.0 0.00 0.09 0.09 67 1006.5
20260508200558 64 208 9.0 14.0 0.00 0.09 0.09 69 1006.6
20260508200057 63 212 7.0 14.0 0.00 0.09 0.09 69 1006.7
20260508195557 63 198 9.0 14.0 0.00 0.09 0.09 65 1006.8
20260508195056 63 204 9.0 14.0 0.00 0.09 0.09 66 1006.9
20260508194556 63 225 8.0 14.0 0.00 0.09 0.09 66 1006.9
20260508194059 63 211 9.0 14.0 0.00 0.09 0.09 65 1006.9
20260508193555 63 191 8.0 15.0 0.00 0.09 0.09 67 1007.0
20260508193128 64 230 9.0 15.0 0.00 0.09 0.09 66 1007.0
20260508192555 64 196 10.0 15.0 0.00 0.09 0.09 68 1007.0
20260508192054 64 183 9.0 15.0 0.00 0.09 0.09 67 1007.0
20260508191554 64 202 8.0 12.0 0.00 0.09 0.09 65 1007.0
20260508191053 64 237 6.0 12.0 0.00 0.09 0.09 68 1007.1
20260508190553 63 257 8.0 12.0 0.00 0.09 0.09 66 1007.1
20260508190054 64 227 6.0 10.0 0.00 0.09 0.09 65 1007.1
20260508185654 64 222 5.0 9.0 0.00 0.09 0.09 65 1007.1
20260508185053 64 248 5.0 11.0 0.00 0.09 0.09 67 1007.2
20260508184614 64 224 7.0 12.0 0.00 0.09 0.09 66 1007.2
20260508184052 64 222 7.0 13.0 0.00 0.09 0.09 67 1007.3
20260508183550 64 211 9.0 13.0 0.00 0.09 0.09 68 1007.3
20260508183051 64 198 7.0 11.0 0.00 0.09 0.09 67 1007.5
20260508182549 64 207 8.0 11.0 0.00 0.09 0.09 67 1007.6
20260508182048 63 221 6.0 11.0 0.00 0.09 0.09 69 1007.6
20260508181548 62 230 6.0 11.0 0.00 0.09 0.09 71 1007.7
20260508181048 62 221 6.0 10.0 0.00 0.09 0.09 70 1007.9
20260508180546 62 257 4.0 9.0 0.00 0.09 0.09 68 1007.8
20260508180056 62 211 5.0 7.0 0.00 0.09 0.09 65 1007.9
20260508175546 63 267 3.0 7.0 0.00 0.09 0.09 68 1007.8
20260508175046 62 227 4.0 7.0 0.00 0.09 0.09 64 1007.9
20260508174601 62 261 2.0 7.0 0.00 0.09 0.09 66 1007.8
20260508174045 62 221 3.0 7.0 0.00 0.09 0.09 64 1007.9
20260508173544 62 234 3.0 7.0 0.00 0.09 0.09 65 1007.9
20260508173043 63 219 3.0 7.0 0.00 0.09 0.09 64 1008.1
20260508172543 63 201 3.0 7.0 0.00 0.09 0.09 65 1008.2
20260508172042 62 258 3.0 7.0 0.00 0.09 0.09 64 1008.0
20260508171607 62 265 3.0 9.0 0.00 0.09 0.09 67 1008.2
20260508171041 62 238 4.0 9.0 0.00 0.09 0.09 65 1008.4
20260508170541 62 286 3.0 7.0 0.00 0.09 0.09 65 1008.4
20260508170041 62 243 3.0 7.0 0.00 0.09 0.09 66 1008.5
20260508165639 62 255 5.0 10.0 0.00 0.09 0.09 66 1008.6
20260508165038 63 237 4.0 10.0 0.00 0.09 0.09 65 1008.7
20260508164540 63 228 6.0 10.0 0.00 0.09 0.09 65 1008.7
20260508164037 63 178 6.0 13.0 0.00 0.09 0.09 64 1008.8
20260508163536 63 188 8.0 12.0 0.00 0.09 0.09 67 1008.9
20260508163036 63 198 5.0 14.0 0.00 0.09 0.09 66 1008.9
20260508162536 63 227 7.0 14.0 0.00 0.09 0.09 65 1009.0
20260508162035 63 237 7.0 10.0 0.00 0.09 0.09 65 1008.9
20260508161542 63 206 6.0 9.0 0.00 0.09 0.09 67 1009.0
20260508161034 63 199 6.0 9.0 0.00 0.09 0.09 68 1008.9
20260508160533 62 254 4.0 9.0 0.00 0.09 0.09 66 1009.0
20260508160036 62 213 6.0 9.0 0.00 0.09 0.09 67 1009.0
20260508155531 62 199 6.0 10.0 0.00 0.09 0.09 69 1009.2
20260508155030 62 197 6.0 10.0 0.00 0.09 0.09 68 1009.2
20260508154530 61 182 5.0 11.0 0.00 0.09 0.09 71 1009.2
20260508154029 62 184 6.0 12.0 0.00 0.09 0.09 70 1009.2
20260508153531 61 173 5.0 10.0 0.00 0.09 0.09 70 1009.3
20260508153036 61 186 5.0 10.0 0.00 0.09 0.09 72 1009.4
20260508152529 61 172 4.0 9.0 0.00 0.09 0.09 73 1009.5
20260508152024 60 200 5.0 9.0 0.00 0.09 0.09 74 1009.6
20260508151536 60 140 4.0 9.0 0.00 0.09 0.09 75 1009.5
20260508151028 60 165 6.0 11.0 0.00 0.09 0.09 73 1009.5
20260508150523 60 147 4.0 11.0 0.00 0.09 0.09 73 1009.5
20260508150026 60 178 6.0 11.0 0.00 0.09 0.09 73 1009.5
20260508145523 60 169 7.0 11.0 0.00 0.09 0.09 71 1009.5
20260508145026 60 153 5.0 8.0 0.00 0.09 0.09 74 1009.6
20260508144521 59 177 5.0 8.0 0.00 0.09 0.09 74 1009.6
20260508144020 59 167 5.0 9.0 0.00 0.09 0.09 74 1009.7
20260508143520 59 187 6.0 10.0 0.00 0.09 0.09 73 1009.7
20260508143018 59 158 6.0 10.0 0.00 0.09 0.09 75 1009.8
20260508142523 59 165 7.0 11.0 0.00 0.09 0.09 76 1009.8
20260508142018 59 165 7.0 11.0 0.00 0.09 0.09 76 1009.8
20260508141517 59 175 7.0 10.0 0.00 0.09 0.09 75 1009.8
20260508141017 59 140 5.0 9.0 0.00 0.09 0.09 77 1009.8
20260508140514 58 167 5.0 9.0 0.00 0.09 0.09 78 1009.9
20260508140013 58 167 5.0 8.0 0.00 0.09 0.09 79 1009.8
20260508135515 58 171 4.0 7.0 0.00 0.09 0.09 80 1009.9
20260508135012 58 146 4.0 7.0 0.00 0.09 0.09 80 1010.0
20260508134510 57 151 5.0 8.0 0.00 0.09 0.09 81 1009.8
20260508134010 56 170 5.0 8.0 0.00 0.09 0.09 82 1009.8
20260508133509 56 145 5.0 8.0 0.00 0.09 0.09 83 1009.9
20260508133009 55 163 5.0 8.0 0.00 0.09 0.09 83 1009.9
20260508132506 55 161 5.0 8.0 0.00 0.09 0.09 84 1009.8
20260508132008 55 142 4.0 8.0 0.00 0.09 0.09 85 1009.8
20260508131505 54 144 4.0 8.0 0.00 0.09 0.09 85 1009.8
20260508131004 54 109 5.0 9.0 0.00 0.09 0.09 86 1009.9
20260508130506 54 157 5.0 9.0 0.00 0.09 0.09 85 1010.0
20260508130004 54 149 7.0 9.0 0.00 0.09 0.09 85 1010.1
20260508125502 54 132 6.0 9.0 0.00 0.09 0.09 86 1010.0
20260508125002 54 135 5.0 9.0 0.00 0.09 0.09 88 1010.0
20260508124501 54 136 6.0 9.0 0.00 0.09 0.09 89 1010.1
20260508124101 53 142 5.0 9.0 0.00 0.09 0.09 90 1010.2
20260508123559 53 148 5.0 8.0 0.00 0.09 0.09 92 1010.2
20260508123104 52 136 4.0 7.0 0.00 0.09 0.09 93 1010.2
20260508122558 52 144 3.0 6.0 0.00 0.09 0.09 93 1010.3
20260508122057 52 136 3.0 4.0 0.01 0.09 0.09 93 1010.4
20260508121601 52 178 2.0 4.0 0.01 0.09 0.09 93 1010.3
20260508121058 51 178 0.0 0.0 0.01 0.09 0.09 93 1010.4
20260508120600 51 178 0.0 1.0 0.01 0.09 0.09 93 1010.3
20260508120100 51 178 0.0 2.0 0.01 0.09 0.09 93 1010.3
20260508115556 51 178 0.0 2.0 0.02 0.09 0.09 93 1010.3
20260508115056 51 178 1.0 3.0 0.03 0.09 0.09 93 1010.3
20260508114606 50 178 2.0 3.0 0.03 0.09 0.09 92 1010.2
20260508114056 50 178 2.0 3.0 0.03 0.09 0.09 92 1010.1
20260508113559 50 178 1.0 2.0 0.03 0.09 0.09 92 1010.2
20260508113105 50 178 1.0 2.0 0.03 0.09 0.09 92 1010.2
20260508112558 50 178 0.0 0.0 0.03 0.09 0.09 92 1010.3
20260508112055 50 178 0.0 2.0 0.02 0.08 0.08 92 1010.3
20260508111601 50 178 0.0 2.0 0.03 0.08 0.08 92 1010.1
20260508111055 50 178 0.0 2.0 0.03 0.08 0.08 92 1010.1
20260508110554 51 178 0.0 2.0 0.03 0.08 0.08 91 1010.2
20260508110100 51 178 1.0 2.0 0.03 0.08 0.08 92 1010.2
20260508105553 51 178 0.0 3.0 0.04 0.07 0.07 92 1010.4
20260508105054 51 178 1.0 3.0 0.04 0.06 0.06 92 1010.3
20260508104555 51 178 1.0 5.0 0.05 0.06 0.06 92 1010.1
20260508104053 50 178 2.0 6.0 0.05 0.06 0.06 92 1010.1
20260508103553 50 179 4.0 6.0 0.06 0.06 0.06 92 1010.1
20260508103053 50 173 3.0 5.0 0.06 0.06 0.06 92 1010.0
20260508102552 50 173 3.0 5.0 0.06 0.06 0.06 91 1010.0
20260508102052 50 140 2.0 4.0 0.06 0.06 0.06 91 1010.0
20260508101552 50 140 2.0 5.0 0.05 0.05 0.05 91 1009.8
20260508101052 50 145 3.0 5.0 0.05 0.05 0.05 91 1009.8
20260508100551 50 132 2.0 3.0 0.05 0.05 0.05 91 1009.8
20260508100051 50 132 2.0 3.0 0.04 0.04 0.04 90 1010.0
20260508095550 49 26 1.0 3.0 0.03 0.03 0.03 89 1010.2
20260508095050 50 26 2.0 3.0 0.02 0.02 0.02 89 1010.2
20260508094555 50 23 0.0 0.0 0.01 0.01 0.01 90 1010.2
20260508094048 49 286 0.0 0.0 0.01 0.01 0.01 89 1010.3
20260508093548 49 286 0.0 0.0 0.00 0.00 0.00 88 1010.3
20260508093047 50 286 0.0 0.0 0.00 0.00 0.00 87 1010.4
20260508092547 49 286 0.0 0.0 0.00 0.00 0.00 87 1010.4
20260508092046 49 286 0.0 0.0 0.00 0.00 0.00 87 1010.4
20260508091609 49 286 0.0 2.0 0.00 0.00 0.00 87 1010.5
20260508091045 49 286 0.0 2.0 0.00 0.00 0.00 86 1010.6
20260508090547 50 286 0.0 1.0 0.00 0.00 0.00 85 1010.5
20260508090050 50 286 0.0 2.0 0.00 0.00 0.00 84 1010.7
20260508085543 51 286 1.0 2.0 0.00 0.00 0.00 83 1010.5
20260508085047 51 286 0.0 1.0 0.00 0.00 0.00 84 1010.4
20260508084543 51 286 0.0 0.0 0.00 0.00 0.00 84 1010.5
20260508084042 51 286 0.0 0.0 0.00 0.00 0.00 83 1010.6
20260508083541 51 286 0.0 0.0 0.00 0.00 0.00 82 1010.5
20260508083042 52 286 0.0 2.0 0.00 0.00 0.00 82 1010.6
20260508082540 52 286 0.0 3.0 0.00 0.00 0.00 81 1010.6
20260508082043 52 286 1.0 5.0 0.00 0.00 0.00 81 1010.6
20260508081546 53 286 1.0 5.0 0.00 0.00 0.00 81 1010.5
20260508081040 53 296 2.0 8.0 0.00 0.00 0.00 82 1010.7
20260508080539 53 275 4.0 8.0 0.00 0.00 0.00 82 1010.6
20260508080041 53 273 3.0 7.0 0.00 0.00 0.00 81 1010.6
20260508075541 53 246 4.0 7.0 0.00 0.00 0.00 81 1010.6
20260508075038 52 262 2.0 5.0 0.00 0.00 0.00 81 1010.6
20260508074540 52 254 1.0 6.0 0.00 0.00 0.00 81 1010.6
20260508074038 52 248 2.0 6.0 0.00 0.00 0.00 81 1010.7
20260508073538 52 238 2.0 5.0 0.00 0.00 0.00 80 1010.7
20260508073038 52 253 3.0 5.0 0.00 0.00 0.00 80 1011.0
20260508072537 52 260 2.0 5.0 0.00 0.00 0.00 80 1010.9
20260508072037 52 271 2.0 5.0 0.00 0.00 0.00 79 1010.8
20260508071537 53 263 3.0 7.0 0.00 0.00 0.00 79 1010.8
20260508071037 53 271 3.0 7.0 0.00 0.00 0.00 79 1010.7
20260508070536 53 266 3.0 9.0 0.00 0.00 0.00 79 1010.8
20260508070036 53 244 4.0 10.0 0.00 0.00 0.00 79 1010.8
20260508065535 52 226 7.0 10.0 0.00 0.00 0.00 79 1010.8
20260508065034 52 204 6.0 11.0 0.00 0.00 0.00 79 1010.8
20260508064538 52 207 7.0 10.0 0.00 0.00 0.00 79 1010.8
20260508064035 52 213 6.0 10.0 0.00 0.00 0.00 79 1010.8
20260508063534 52 209 5.0 9.0 0.00 0.00 0.00 79 1010.7
20260508063105 52 218 4.0 7.0 0.00 0.00 0.00 79 1010.7
20260508062533 52 216 4.0 7.0 0.00 0.00 0.00 79 1010.8
20260508062036 52 208 5.0 8.0 0.00 0.00 0.00 78 1010.8
20260508061535 52 207 5.0 8.0 0.00 0.00 0.00 77 1010.8
20260508061033 52 213 5.0 9.0 0.00 0.00 0.00 77 1010.9
20260508060535 52 217 6.0 10.0 0.00 0.00 0.00 77 1010.9
20260508060031 52 231 5.0 10.0 0.00 0.00 0.00 77 1011.0
20260508055530 52 234 2.0 6.0 0.00 0.00 0.00 78 1011.0
20260508055030 51 225 3.0 8.0 0.00 0.00 0.00 78 1010.9
20260508054530 52 221 2.0 8.0 0.00 0.00 0.00 78 1010.9
20260508054029 51 217 4.0 8.0 0.00 0.00 0.00 78 1011.0
20260508053528 51 213 5.0 7.0 0.00 0.00 0.00 78 1010.8
20260508053042 51 206 5.0 7.0 0.00 0.00 0.00 79 1010.9
20260508052527 50 194 5.0 7.0 0.00 0.00 0.00 80 1010.8
20260508052029 50 199 5.0 7.0 0.00 0.00 0.00 80 1010.8
20260508051524 50 194 5.0 8.0 0.00 0.00 0.00 79 1010.9
20260508051024 50 191 4.0 8.0 0.00 0.00 0.00 78 1010.8
20260508050523 50 190 5.0 7.0 0.00 0.00 0.00 78 1010.8
20260508050021 51 192 5.0 7.0 0.00 0.00 0.00 78 1010.7
20260508045521 51 190 6.0 7.0 0.00 0.00 0.00 78 1010.8
20260508045025 50 193 5.0 9.0 0.00 0.00 0.00 79 1010.8
20260508044522 50 191 6.0 9.0 0.00 0.00 0.00 79 1010.7
20260508044022 50 201 5.0 7.0 0.00 0.00 0.00 79 1010.7
20260508043521 50 190 5.0 7.0 0.00 0.00 0.00 79 1010.7
20260508043020 50 192 5.0 7.0 0.00 0.00 0.00 79 1010.7
20260508042520 50 196 5.0 7.0 0.00 0.00 0.00 78 1010.6
20260508042024 50 188 5.0 8.0 0.00 0.00 0.00 78 1010.6
20260508041521 50 186 5.0 7.0 0.00 0.00 0.00 78 1010.7
20260508041020 50 195 5.0 7.0 0.00 0.00 0.00 77 1010.7
20260508040521 50 192 5.0 7.0 0.00 0.00 0.00 77 1010.7
20260508040020 50 192 4.0 6.0 0.00 0.00 0.00 76 1010.7
20260508035519 51 205 5.0 7.0 0.00 0.00 0.00 77 1010.7
20260508035021 51 187 4.0 7.0 0.00 0.00 0.00 76 1010.7
20260508034525 51 195 4.0 7.0 0.00 0.00 0.00 76 1010.7
20260508034020 51 193 4.0 7.0 0.00 0.00 0.00 76 1010.7
20260508033519 51 194 5.0 8.0 0.00 0.00 0.00 76 1010.7
20260508033025 51 194 5.0 8.0 0.00 0.00 0.00 76 1010.6
20260508032519 51 202 6.0 8.0 0.00 0.00 0.00 77 1010.6
20260508032019 51 185 6.0 9.0 0.00 0.00 0.00 77 1010.6
20260508031521 51 195 6.0 9.0 0.00 0.00 0.00 76 1010.7
20260508031018 51 211 6.0 9.0 0.00 0.00 0.00 76 1010.7
20260508030518 51 197 5.0 7.0 0.00 0.00 0.00 76 1010.7
20260508030019 51 196 4.0 7.0 0.00 0.00 0.00 75 1010.7
20260508025517 52 192 5.0 7.0 0.00 0.00 0.00 75 1010.7
20260508025017 52 199 5.0 11.0 0.00 0.00 0.00 74 1010.8
20260508024522 53 196 6.0 11.0 0.00 0.00 0.00 73 1010.7
20260508024017 52 202 7.0 10.0 0.00 0.00 0.00 73 1010.6
20260508023517 52 198 5.0 8.0 0.00 0.00 0.00 73 1010.6
20260508023017 53 194 6.0 8.0 0.00 0.00 0.00 71 1010.5
20260508022516 53 202 5.0 9.0 0.00 0.00 0.00 71 1010.5
20260508022016 53 203 6.0 10.0 0.00 0.00 0.00 70 1010.5
20260508021526 53 217 6.0 10.0 0.00 0.00 0.00 69 1010.5
20260508021018 54 217 5.0 9.0 0.00 0.00 0.00 68 1010.4
20260508020515 54 212 5.0 8.0 0.00 0.00 0.00 68 1010.3
20260508020015 54 217 6.0 8.0 0.00 0.00 0.00 67 1010.3
20260508015515 54 209 6.0 9.0 0.00 0.00 0.00 67 1010.2
20260508015015 55 223 6.0 10.0 0.00 0.00 0.00 65 1010.2
20260508014516 55 220 6.0 14.0 0.00 0.00 0.00 64 1010.1
20260508014016 56 221 8.0 14.0 0.00 0.00 0.00 63 1010.0
20260508013515 56 196 9.0 13.0 0.00 0.00 0.00 63 1009.9
20260508013014 56 198 8.0 12.0 0.00 0.00 0.00 64 1009.9
20260508012514 57 216 7.0 13.0 0.00 0.00 0.00 63 1009.9
20260508012014 57 212 8.0 14.0 0.00 0.00 0.00 62 1009.8
20260508011515 57 213 8.0 18.0 0.00 0.00 0.00 61 1009.8
20260508011014 58 253 11.0 18.0 0.00 0.00 0.00 61 1009.7
20260508010514 58 204 9.0 16.0 0.00 0.00 0.00 61 1009.7
20260508010031 58 205 11.0 16.0 0.00 0.00 0.00 60 1009.6
20260508005514 58 213 9.0 13.0 0.00 0.00 0.00 60 1009.5
20260508005014 59 223 9.0 15.0 0.00 0.00 0.00 59 1009.4
20260508004513 59 227 10.0 15.0 0.00 0.00 0.00 59 1009.5
20260508004016 59 213 10.0 15.0 0.00 0.00 0.00 58 1009.4
20260508003514 59 213 8.0 15.0 0.00 0.00 0.00 58 1009.5
20260508003013 60 219 8.0 13.0 0.00 0.00 0.00 58 1009.4
20260508002516 60 209 8.0 14.0 0.00 0.00 0.00 57 1009.6
20260508002014 60 214 8.0 14.0 0.00 0.00 0.00 57 1009.5
20260508001514 60 200 6.0 11.0 0.00 0.00 0.00 57 1009.5
20260508001012 60 228 7.0 15.0 0.00 0.00 0.00 56 1009.6
20260508000513 60 225 9.0 15.0 0.00 0.00 0.00 55 1009.4
20260508000011 61 220 9.0 15.0 0.00 0.00 0.00 54 1009.4
20260507235516 62 210 10.0 15.0 0.00 0.00 0.00 50 1009.4
20260507235013 62 215 9.0 15.0 0.00 0.00 0.00 48 1009.4
20260507234511 62 254 10.0 16.0 0.00 0.00 0.00 48 1009.3
20260507234013 62 244 10.0 20.0 0.00 0.00 0.00 47 1009.4
20260507233511 62 259 11.0 20.0 0.00 0.00 0.00 46 1009.3
20260507233010 62 258 9.0 16.0 0.00 0.00 0.00 51 1009.3
20260507232510 62 206 9.0 16.0 0.00 0.00 0.00 49 1009.4
20260507232013 62 259 10.0 18.0 0.00 0.00 0.00 47 1009.3
20260507231509 62 255 11.0 18.0 0.00 0.00 0.00 48 1009.5
20260507231009 62 219 12.0 17.0 0.00 0.00 0.00 48 1009.4
20260507230509 63 246 11.0 17.0 0.00 0.00 0.00 48 1009.4
20260507230019 62 221 12.0 17.0 0.00 0.00 0.00 47 1009.5
20260507225508 62 260 9.0 15.0 0.00 0.00 0.00 47 1009.6
20260507225008 62 252 10.0 15.0 0.00 0.00 0.00 48 1009.6
20260507224509 63 224 9.0 20.0 0.00 0.00 0.00 48 1009.7
20260507224006 62 233 9.0 20.0 0.00 0.00 0.00 50 1009.7
20260507223506 62 227 10.0 21.0 0.00 0.00 0.00 48 1009.8
20260507223005 62 225 13.0 21.0 0.00 0.00 0.00 47 1009.9
20260507222505 62 223 7.0 19.0 0.00 0.00 0.00 50 1010.0
20260507222004 63 242 11.0 22.0 0.00 0.00 0.00 48 1010.0
20260507221503 63 234 13.0 22.0 0.00 0.00 0.00 47 1010.1
20260507221001 63 229 11.0 22.0 0.00 0.00 0.00 49 1010.1
20260507220501 62 238 12.0 20.0 0.00 0.00 0.00 48 1010.1
20260507220100 62 247 11.0 19.0 0.00 0.00 0.00 52 1010.1
20260507215600 61 205 7.0 19.0 0.00 0.00 0.00 54 1010.2
20260507215100 61 215 8.0 17.0 0.00 0.00 0.00 54 1010.2
20260507214600 61 200 12.0 17.0 0.00 0.00 0.00 54 1010.4
20260507214058 60 190 9.0 16.0 0.00 0.00 0.00 55 1010.3